Orbital Elements at Epoch 2456364.5 (2013-Mar-13.0) TDB
Reference: JPL K113/4 (heliocentric ecliptic J2000)
Element | Value | Uncertainty (1-sigma) | Units |
e | .9189810923126022 | 0.00017002 | |
a | 9.235960944226864 | 0.022659 | au |
q | .748287467144728 | 0.00027109 | au |
i | 28.96687278723059 | 0.0011605 | deg |
node | 250.6264098390235 | 0.0041998 | deg |
peri | 196.0253968913816 | 0.017961 | deg |
M | 20.61577251683614 | 0.075722 | deg |
tp | 2455777.391090241354 (2011-Aug-03.89109024) | 0.0046592 | TDB |
period | 10252.30596333479 28.07 | 37.729 0.1033 | d yr |
n | .03511405153996224 | 0.00012922 | deg/d |
Q | 17.723634421309 | 0.043483 | au |
|
Additional Model Parameters
Parameter | Value | Uncertainty (1-sigma) |
A1 [EST] | -3.653645033749881E-8 | 1.055E-7 |
A2 [EST] | -1.713114322066723E-9 | 7.261E-9 |
A3 [EST] | 2.081362723681325E-9 | 1.936E-9 |
|
| | Orbit Determination Parameters
Additional Information
|